Location: ????????
(55.6705°N, 38.7686°E)
Time: 00:38:55
(UTC+00:00)

Daily predictions for brighter satellites

Satellite Brightness Start Highest point End
(mag) Time Altitude Azimuth Time Altitude Azimuth Time Altitude Azimuth
Cosmos 405 3.5 00:09:08 57° NE 00:09:08 57° NE 00:12:06 10° NNE
SL-08 R/B 3.1 00:08:14 61° S 00:09:03 83° WSW 00:13:43 10° NNW
IDEFIX/ARIANE 42P 3.7 00:04:14 10° NNE 00:09:13 39° E 00:12:52 17° SSE
SL-16 R/B 3.5 00:12:20 29° W 00:12:20 29° W 00:16:54 10° NNW
Cosmos 1633 Rocket 2.9 00:07:33 10° NNW 00:11:56 78° W 00:11:56 78° W
Cosmos 220 Rocket 4.2 00:11:33 56° SE 00:12:01 60° ESE 00:16:15 10° NNE
Cosmos 1241 Rocket 4.4 00:10:11 48° SW 00:12:08 85° SE 00:18:38 10° NE
IRS-1C 4.4 00:07:00 10° NNE 00:12:20 63° ESE 00:14:40 33° S
Cosmos 1933 Rocket 4.2 00:11:56 10° N 00:16:15 54° ENE 00:20:14 12° SSE
Cosmos 1328 Rocket 4.2 00:14:40 33° SSE 00:16:20 53° E 00:20:41 10° NNE
Cosmos 1666 Rocket 3.7 00:12:35 10° NNW 00:16:42 58° WNW 00:16:42 58° WNW
ARIANE 5 R/B 3.0 00:13:48 10° NNE 00:18:52 56° E 00:21:31 27° SSE
IRS-1D 3.5 00:14:25 10° NNE 00:19:48 78° WNW 00:21:19 48° SW
CZ-2D R/B 2.5 00:14:48 10° N 00:19:53 45° WNW 00:20:45 41° W
Cosmos 1943 Rocket 4.2 00:17:16 12° WNW 00:20:45 20° NNW 00:24:50 10° NNE
AQUA 4.0 00:18:06 10° N 00:22:44 51° WNW 00:23:15 48° W
Cosmos 1606 2.5 00:24:12 80° NW 00:24:12 80° NW 00:27:55 10° N
Cosmos 1151 Rocket 3.2 00:23:47 42° SSE 00:25:07 67° E 00:29:27 10° NNE
NPP 4.0 00:20:39 10° N 00:25:49 48° WNW 00:26:59 41° W
ATLAS 5 CENTAUR R/B 1.7 00:26:24 55° W 00:27:15 70° NNW 00:32:16 10° NE
Cosmos 2297 Rocket 3.6 00:26:14 10° NW 00:28:49 22° WNW 00:28:49 22° WNW
CBERS-1 4.0 00:27:01 10° NNE 00:32:06 67° WNW 00:33:37 44° SW
Resurs 1-4 Rocket 2.9 00:29:03 10° N 00:33:49 36° WNW 00:34:54 32° W
Cosmos 2082 3.9 00:30:04 10° NW 00:35:31 48° WSW 00:39:00 21° S
Genesis I 3.3 00:38:06 54° WNW 00:38:35 59° NW 00:42:26 10° NE
NOSS 3-4 (A) 4.2 00:32:35 10° NW 00:39:09 63° NNE 00:46:29 10° ESE
CZ-4C R/B 3.6 00:35:36 10° SSE 00:39:10 60° ENE 00:42:41 10° N
NOSS 3-4 (C) 4.2 00:32:41 10° NW 00:39:15 62° NNE 00:46:35 10° ESE
Cosmos 1933 3.2 00:42:24 50° SSW 00:43:24 78° WNW 00:47:31 10° N
Cosmos 2369 Rocket 4.1 00:41:05 11° WNW 00:44:56 20° NNW 00:49:07 10° NNE
Meteor 1-26 Rocket 4.4 00:41:40 17° S 00:45:47 68° E 00:51:11 10° NNE
Meteor 1-25 Rocket 4.3 00:40:58 10° NNW 00:46:42 58° W 00:50:49 19° S
USA 305 4.4 00:46:32 22° S 00:47:46 26° SE 00:51:19 10° E
CZ-2D R/B 3.6 00:45:30 10° NNE 00:49:41 72° ESE 00:52:06 25° S
SJ 16-02 1.7 00:46:27 10° NNW 00:50:50 64° ENE 00:55:12 10° SE
USA 267 3.4 00:44:40 10° ENE 00:51:11 63° SSE 00:54:57 27° SW
IRS-P3 4.1 00:46:11 10° NNE 00:51:31 69° WNW 00:54:12 30° SW
USA 306 4.3 00:50:27 22° S 00:51:49 27° SE 00:55:25 10° E
ASTEX 1 3.4 00:47:51 10° N 00:52:53 87° E 00:56:54 16° S
CZ-4C R/B 3.6 00:47:45 10° WNW 00:53:46 47° NNE 01:00:59 10° E
Cosmos 1697 Rocket 2.8 00:50:48 26° SSW 00:54:06 74° ESE 00:59:44 10° NE
NOSS 2-1 (E) 4.1 00:53:13 31° WNW 00:54:22 41° NNW 00:58:28 10° NE
X-37B 3.2 00:56:52 11° SSE 00:56:52 11° SSE 00:57:25 10° SSE
Cosmos 405 Rocket 4.4 00:53:06 10° NW 00:55:02 20° WNW 00:55:02 20° WNW
CZ-2C R/B 4.0 00:52:16 10° NNE 00:56:56 35° E 01:01:40 10° SSE
Cosmos 1980 Rocket 3.0 00:53:31 14° S 00:58:16 49° ESE 01:03:42 10° NE
Cosmos 389 Rocket 3.1 00:58:26 19° S 01:00:43 55° E 01:04:14 10° NNE
H-2A R/B 2.0 00:57:11 10° SSE 01:01:34 84° WSW 01:06:06 10° NNW
Cosmos 2263 Rocket 2.1 00:56:28 10° NW 01:02:09 87° WSW 01:07:50 10° SSE
ERS-1 4.5 00:57:12 10° NNE 01:02:18 73° WNW 01:05:30 24° SSW
Meteor 1-14 Rocket 4.1 00:57:36 10° NNW 01:03:16 70° W 01:08:46 10° S
ATLAS 2AS CENTAUR R/B 3.2 00:55:30 10° NW 01:03:16 68° NNE 01:10:28 10° ESE
Cosmos 990 Rocket 4.3 00:58:57 10° NNW 01:04:08 68° ENE 01:09:20 10° SE
Cosmos 1602 3.9 01:03:11 10° NNW 01:06:53 46° W 01:08:06 33° SW
ERS-2 2.4 01:03:44 10° SSE 01:07:23 71° ENE 01:11:04 10° NNW
Cosmos 1821 Rocket 4.3 01:01:32 10° NNW 01:07:28 44° W 01:11:56 17° SSW
Iridium 2 3.6 01:04:53 18° S 01:07:34 82° E 01:11:21 10° N
Cosmos 1818 3.8 01:05:33 28° WSW 01:08:24 61° NW 01:13:51 10° NE
Cosmos 1844 Rocket 4.1 01:03:30 10° NNW 01:08:47 39° NE 01:14:05 10° ESE
SL-16 R/B 4.4 01:07:16 10° SSE 01:11:38 23° ESE 01:15:59 10° NE
Cosmos 2227 4.1 01:07:10 10° NW 01:12:50 72° WSW 01:18:26 10° SSE
Spot 4 Rocket 4.0 01:09:46 10° NNE 01:14:57 80° WNW 01:19:15 15° SSW
Cosmos 1470 Rocket 4.2 01:12:33 10° NNW 01:16:35 35° W 01:18:21 25° SW
USA 307 4.0 01:16:13 21° SSW 01:18:27 35° SSE 01:22:20 10° E
USA 308 3.9 01:19:11 20° SSW 01:21:31 36° SSE 01:25:26 10° E
Cosmos 1812 3.6 01:18:59 10° S 01:22:42 50° E 01:26:28 10° NNE
Cosmos 1934 Rocket 4.0 01:16:54 10° NNW 01:22:46 52° W 01:28:36 10° SSW
Meteor 1-5 Rocket 4.0 01:17:56 10° NNW 01:23:16 81° WSW 01:28:38 10° S
Cosmos 1500 3.1 01:20:11 10° NNW 01:24:02 70° W 01:27:51 10° S
Cosmos 2227 Rocket 4.1 01:24:35 10° WNW 01:25:13 11° WNW 01:25:13 11° WNW
IRIDIUM 104 4.3 01:23:44 10° N 01:29:00 90° NE 01:34:14 10° S
Cosmos 1666 3.0 01:26:06 10° N 01:29:57 69° ENE 01:33:45 10° SSE
USA 234 4.0 01:24:34 10° S 01:30:04 28° SW 01:35:35 10° WNW
Landsat 5 3.8 01:25:54 10° S 01:30:17 49° W 01:34:39 10° NNW
Cosmos 1238 Rocket 4.2 01:24:10 10° NNW 01:30:36 53° W 01:36:45 10° SSW
ADEOS Rocket 3.1 01:23:51 10° SSE 01:30:37 89° WSW 01:36:43 10° NNW
PKM 4.3 01:28:41 14° W 01:32:13 43° SSW 01:35:32 10° SE
Cosmos 1898 Rocket 3.5 01:26:59 10° NNW 01:32:15 86° WSW 01:37:32 10° SSE
Cosmos 1656 4.2 01:30:38 20° WSW 01:34:09 45° NW 01:39:31 10° NNE
ADEOS II 3.2 01:31:09 10° N 01:35:34 28° NW 01:38:28 17° W
Lacrosse 5 2.2 01:32:48 18° SW 01:36:31 59° SSE 01:41:31 10° ENE
Cosmos 1782 3.1 01:34:32 18° SW 01:37:20 48° WNW 01:41:17 10° N
IRIDIUM 114 4.3 01:32:54 10° N 01:38:09 78° W 01:43:22 10° S
Nadezhda 3 Rocket 4.4 01:33:54 16° SW 01:38:33 43° WNW 01:44:25 10° N
CZ-2C R/B 2.8 01:36:08 10° N 01:39:49 58° WNW 01:43:09 13° SSW
Cosmos 1515 Rocket 3.9 01:37:58 15° SW 01:41:23 46° WNW 01:45:42 10° N
USA 32 4.1 01:36:59 10° N 01:42:17 84° E 01:47:33 10° S
MSX 3.9 01:37:07 10° NNE 01:42:53 68° WNW 01:48:35 10° SSW
CZ-4B R/B 1.2 01:41:00 10° SSE 01:44:10 90° NNW 01:47:27 10° NNW
Cosmos 972 Rocket 4.1 01:40:30 16° SW 01:44:14 51° WNW 01:49:07 10° NNE
Cosmos 858 Rocket 4.5 01:39:57 10° NNW 01:45:11 90° NE 01:50:23 10° SSE
Cosmos 1605 Rocket 4.1 01:39:11 10° NNW 01:45:23 56° W 01:51:36 10° SSW
IRIDIUM 103 4.3 01:42:04 10° N 01:47:17 67° W 01:52:27 10° S
Meteor 1-11 Rocket 3.7 01:42:03 10° NNW 01:47:56 79° W 01:53:39 10° S
IDEFIX/ARIANE 42P 3.0 01:43:53 10° N 01:48:54 44° WNW 01:53:41 11° SW
Cosmos 44 3.6 01:46:35 10° SSW 01:50:58 59° SE 01:55:38 10° NE
USA 276 3.4 01:49:16 17° SW 01:51:09 29° S 01:53:59 10° ESE
Cosmos 2278 3.7 01:46:14 11° SW 01:51:51 78° NW 01:57:37 10° NNE
Cosmos 1707 Rocket 4.1 01:50:26 10° S 01:54:42 61° E 01:59:00 10° NNE
Cosmos 921 Rocket 3.0 01:52:18 10° SSW 01:56:30 83° ESE 02:00:43 10° NNE
ARIANE 5 R/B 3.4 01:53:15 10° N 01:57:46 32° WNW 02:01:50 12° WSW
CZ-2D R/B 4.1 01:56:26 10° NNW 01:58:44 13° NW 02:01:02 10° WNW
Cosmos 2228 Rocket 3.2 01:54:49 10° SSW 01:59:08 55° WNW 02:03:30 10° N
Cosmos 2369 4.0 01:54:43 12° SW 01:59:53 55° NW 02:05:33 10° NNE
Cosmos 1937 Rocket 3.4 01:56:19 10° NNW 02:01:29 71° WSW 02:06:35 10° SSE
Cosmos 1743 3.9 01:58:16 10° N 02:02:00 48° ENE 02:05:41 10° SSE
SAR-Lupe-4 3.5 02:01:10 10° S 02:04:44 64° WSW 02:08:21 10° NNW
ATLAS CENTAUR R/B 3.2 01:53:03 10° WNW 02:04:56 86° SSW 02:09:20 10° ESE
ALOS 3.1 02:01:52 10° NNE 02:06:29 55° E 02:11:04 10° S
Cosmos 1943 Rocket 4.4 02:03:01 10° NNW 02:06:40 17° N 02:10:18 10° NE
PSLV R/B 4.3 02:03:13 10° SSE 02:07:15 69° ENE 02:11:21 10° NNW
Meteor 1-27 Rocket 4.2 02:01:43 10° S 02:07:39 74° E 02:13:33 10° NNE
Cosmos 1733 Rocket 3.0 02:03:53 10° NNW 02:08:18 88° WSW 02:12:38 10° S
SKYMED 2 3.9 02:07:50 10° SSE 02:12:10 72° ENE 02:16:31 10° NNW
Resurs 1-4 Rocket 4.2 02:11:21 10° NNW 02:12:17 10° NW 02:13:14 10° NW
COSMOS 2455 4.1 02:06:51 10° NW 02:12:34 41° NNE 02:18:14 10° E
ATLAS 5 CENTAUR R/B 3.0 02:08:18 10° WNW 02:12:36 36° N 02:17:34 10° ENE
Cosmos 1869 Rocket 4.3 02:09:03 10° NNW 02:12:56 32° W 02:16:46 10° SSW
Cosmos 1536 2.9 02:09:24 10° NNW 02:13:26 61° W 02:17:27 10° S
Cosmos 1725 Rocket 4.4 02:08:47 10° N 02:15:00 69° ENE 02:21:09 10° SSE
SAR-Lupe-1 4.2 02:13:36 10° S 02:17:05 49° WSW 02:20:36 10° NNW
Cosmos 1484 Rocket 3.2 02:14:32 10° NNE 02:18:32 72° ESE 02:22:30 10° S
Cosmos 2100 Rocket 4.1 02:13:39 10° NNW 02:20:00 70° W 02:26:20 10° S
Cosmos 1802 Rocket 4.0 02:16:05 10° NNW 02:22:18 83° W 02:28:32 10° S
Meteor 1-4 Rocket 2.6 02:21:14 10° SSW 02:24:39 55° WNW 02:28:08 10° N
Cosmos 1727 Rocket 4.1 02:18:18 10° SSW 02:24:39 69° WNW 02:30:59 10° N
USA 305 3.2 02:23:07 10° WSW 02:27:18 59° SSE 02:31:30 10° E
Cosmos 1862 Rocket 4.0 02:24:08 10° S 02:28:29 67° E 02:32:50 10° NNE
SJ 16-02 2.5 02:25:42 10° NW 02:29:01 21° W 02:32:20 10° SSW
Meteor 1-31 Rocket 3.0 02:25:28 10° NNE 02:29:18 75° ESE 02:33:07 10° S
Cosmos 1763 Rocket 3.7 02:24:02 10° SSW 02:29:21 79° ESE 02:34:41 10° NNE
PSLV R/B 4.0 02:26:08 10° N 02:30:08 41° WNW 02:34:05 10° SW
NOSS 3-4 (A) 3.9 02:23:33 10° NW 02:30:14 58° SW 02:37:39 10° SSE
NOSS 3-4 (C) 3.9 02:23:39 10° NW 02:30:20 59° SW 02:37:46 10° SSE
Cosmos 2369 Rocket 4.4 02:27:20 10° NNW 02:31:09 18° N 02:34:58 10° NE
USA 306 3.2 02:27:10 10° WSW 02:31:22 61° SSE 02:35:34 10° E
Cosmos 2360 Rocket 3.8 02:27:05 10° S 02:32:18 39° ESE 02:37:33 10° NE
